| time (UTC) | temp F | wind direction | speed MPH | gust MPH | rain 1hr in | rain 24hr in | rain mn in | humidity % | barometer mb |
| 20260504110520 | 46 | 296 | 6.0 | 8.0 | 0.00 | 0.00 | 0.00 | 58 | 1015.7 |
| 20260504100442 | 45 | 346 | 2.0 | 2.0 | 0.00 | 0.00 | 0.00 | 62 | 1015.7 |
| 20260504081840 | 48 | 47 | 9.0 | 9.0 | 0.00 | 0.00 | 0.00 | 56 | 1015.2 |
| 20260504081337 | 48 | 18 | 6.0 | 8.0 | 0.00 | 0.00 | 0.00 | 55 | 1014.9 |
| 20260504080833 | 48 | 50 | 11.0 | 13.0 | 0.00 | 0.00 | 0.00 | 54 | 1014.8 |
| 20260504080330 | 49 | 50 | 10.0 | 13.0 | 0.00 | 0.00 | 0.00 | 53 | 1015.1 |
| 20260504070257 | 51 | 44 | 12.0 | 15.0 | 0.00 | 0.00 | 0.00 | 46 | 1013.4 |
| 20260504060218 | 54 | 30 | 10.0 | 15.0 | 0.00 | 0.00 | 0.00 | 37 | 1012.0 |
| 20260504050646 | 55 | 24 | 18.0 | 22.0 | 0.00 | 0.00 | 0.00 | 37 | 1010.7 |
| 20260504050143 | 55 | 43 | 20.0 | 23.0 | 0.00 | 0.00 | 0.00 | 37 | 1010.7 |
| 20260504045640 | 56 | 42 | 19.0 | 22.0 | 0.00 | 0.00 | 0.00 | 37 | 1010.4 |
| 20260504045140 | 57 | 30 | 15.0 | 18.0 | 0.00 | 0.00 | 0.00 | 38 | 1010.6 |
| 20260504044638 | 57 | 55 | 13.0 | 17.0 | 0.00 | 0.00 | 0.00 | 38 | 1010.2 |
| 20260504044134 | 58 | 32 | 15.0 | 17.0 | 0.00 | 0.00 | 0.00 | 37 | 1009.9 |
| 20260504043632 | 57 | 29 | 11.0 | 13.0 | 0.00 | 0.00 | 0.00 | 37 | 1010.0 |
| 20260504043129 | 57 | 15 | 7.0 | 9.0 | 0.00 | 0.00 | 0.00 | 38 | 1009.6 |
| 20260504042626 | 57 | 21 | 7.0 | 8.0 | 0.00 | 0.00 | 0.00 | 38 | 1009.4 |
| 20260504042123 | 57 | 27 | 7.0 | 9.0 | 0.00 | 0.00 | 0.00 | 37 | 1009.5 |
| 20260504041618 | 57 | 20 | 7.0 | 9.0 | 0.00 | 0.00 | 0.00 | 37 | 1009.2 |
| 20260504041115 | 57 | 27 | 6.0 | 8.0 | 0.00 | 0.00 | 0.00 | 37 | 1009.2 |
| 20260504040612 | 57 | 18 | 6.0 | 8.0 | 0.00 | 0.00 | 0.00 | 36 | 1009.0 |
| 20260504040109 | 58 | 22 | 6.0 | 7.0 | 0.00 | 0.00 | 0.00 | 36 | 1008.9 |
| 20260504035606 | 58 | 33 | 6.0 | 8.0 | 0.00 | 0.00 | 0.00 | 36 | 1008.9 |
| 20260504035102 | 58 | 47 | 5.0 | 8.0 | 0.00 | 0.00 | 0.00 | 36 | 1008.8 |
| 20260504034600 | 58 | 31 | 8.0 | 9.0 | 0.00 | 0.00 | 0.00 | 36 | 1008.7 |
| 20260504034056 | 59 | 25 | 7.0 | 9.0 | 0.00 | 0.00 | 0.00 | 36 | 1008.5 |
| 20260504033554 | 59 | 17 | 6.0 | 8.0 | 0.00 | 0.00 | 0.00 | 36 | 1008.4 |
| 20260504033052 | 59 | 39 | 5.0 | 7.0 | 0.00 | 0.00 | 0.00 | 35 | 1008.4 |
| 20260504032549 | 60 | 33 | 5.0 | 7.0 | 0.00 | 0.00 | 0.00 | 34 | 1008.4 |
| 20260504032045 | 60 | 35 | 7.0 | 8.0 | 0.00 | 0.00 | 0.00 | 34 | 1008.1 |
| 20260504031542 | 61 | 39 | 11.0 | 15.0 | 0.00 | 0.00 | 0.00 | 34 | 1008.0 |
| 20260504031038 | 61 | 27 | 8.0 | 11.0 | 0.00 | 0.00 | 0.00 | 34 | 1007.8 |
| 20260504030536 | 61 | 66 | 7.0 | 8.0 | 0.00 | 0.00 | 0.00 | 33 | 1007.6 |
| 20260504030032 | 62 | 39 | 11.0 | 13.0 | 0.00 | 0.00 | 0.00 | 32 | 1007.7 |
| 20260504025529 | 62 | 42 | 6.0 | 8.0 | 0.00 | 0.00 | 0.00 | 32 | 1007.6 |
| 20260504025026 | 62 | 52 | 11.0 | 13.0 | 0.00 | 0.00 | 0.00 | 30 | 1007.7 |
| 20260504024523 | 63 | 33 | 7.0 | 10.0 | 0.00 | 0.00 | 0.00 | 29 | 1007.6 |
| 20260504024020 | 63 | 26 | 7.0 | 9.0 | 0.00 | 0.00 | 0.00 | 29 | 1007.5 |
| 20260504023516 | 64 | 39 | 7.0 | 9.0 | 0.00 | 0.00 | 0.00 | 28 | 1007.7 |
| 20260504023012 | 65 | 30 | 7.0 | 8.0 | 0.00 | 0.00 | 0.00 | 26 | 1007.5 |
| 20260504022508 | 65 | 26 | 9.0 | 11.0 | 0.00 | 0.00 | 0.00 | 24 | 1007.6 |
| 20260504022005 | 65 | 10 | 3.0 | 3.0 | 0.00 | 0.00 | 0.00 | 22 | 1007.4 |
| 20260504021503 | 66 | 352 | 0.0 | 1.0 | 0.00 | 0.00 | 0.00 | 22 | 1007.4 |
| 20260504020959 | 67 | 344 | 1.0 | 1.0 | 0.00 | 0.00 | 0.00 | 21 | 1007.5 |
| 20260504020456 | 68 | 11 | 3.0 | 5.0 | 0.00 | 0.00 | 0.00 | 20 | 1007.4 |
| 20260504015953 | 69 | 4 | 5.0 | 6.0 | 0.00 | 0.00 | 0.00 | 20 | 1007.6 |
| 20260504015449 | 69 | 353 | 6.0 | 8.0 | 0.00 | 0.00 | 0.00 | 20 | 1007.4 |
| 20260504014945 | 69 | 13 | 7.0 | 8.0 | 0.00 | 0.00 | 0.00 | 20 | 1007.4 |
| 20260504014441 | 70 | 336 | 10.0 | 13.0 | 0.00 | 0.00 | 0.00 | 20 | 1007.5 |
| 20260504013938 | 70 | 1 | 6.0 | 8.0 | 0.00 | 0.00 | 0.00 | 20 | 1007.5 |
| 20260504013437 | 71 | 356 | 8.0 | 9.0 | 0.00 | 0.00 | 0.00 | 19 | 1007.5 |
| 20260504012932 | 71 | 4 | 10.0 | 11.0 | 0.00 | 0.00 | 0.00 | 19 | 1007.5 |
| 20260504012430 | 72 | 0 | 7.0 | 9.0 | 0.00 | 0.00 | 0.00 | 19 | 1007.4 |
| 20260504011928 | 72 | 352 | 11.0 | 13.0 | 0.00 | 0.00 | 0.00 | 19 | 1007.3 |
| 20260504011424 | 72 | 3 | 8.0 | 9.0 | 0.00 | 0.00 | 0.00 | 19 | 1007.4 |
| 20260504010920 | 72 | 10 | 9.0 | 10.0 | 0.00 | 0.00 | 0.00 | 19 | 1007.6 |
| 20260504010416 | 73 | 359 | 13.0 | 14.0 | 0.00 | 0.00 | 0.00 | 19 | 1007.4 |
| 20260504005913 | 73 | 26 | 8.0 | 10.0 | 0.00 | 0.00 | 0.00 | 19 | 1007.6 |
| 20260504005409 | 73 | 357 | 11.0 | 13.0 | 0.00 | 0.00 | 0.00 | 19 | 1007.6 |
| 20260504004907 | 73 | 347 | 12.0 | 13.0 | 0.00 | 0.00 | 0.00 | 19 | 1007.6 |
| 20260504004405 | 73 | 8 | 10.0 | 11.0 | 0.00 | 0.00 | 0.00 | 19 | 1007.7 |
| 20260504003901 | 73 | 16 | 10.0 | 11.0 | 0.00 | 0.00 | 0.00 | 19 | 1007.8 |
| 20260504003358 | 74 | 339 | 9.0 | 10.0 | 0.00 | 0.00 | 0.00 | 18 | 1007.9 |
| 20260504002854 | 73 | 327 | 12.0 | 14.0 | 0.00 | 0.00 | 0.00 | 19 | 1008.0 |
| 20260504002351 | 73 | 3 | 7.0 | 8.0 | 0.00 | 0.00 | 0.00 | 18 | 1008.0 |
| 20260504001849 | 74 | 326 | 11.0 | 13.0 | 0.00 | 0.00 | 0.00 | 18 | 1007.8 |
| 20260504001346 | 74 | 343 | 12.0 | 15.0 | 0.00 | 0.00 | 0.00 | 18 | 1008.0 |
| 20260504000843 | 74 | 313 | 10.0 | 10.0 | 0.00 | 0.00 | 0.00 | 18 | 1008.0 |
| 20260504000340 | 74 | 0 | 9.0 | 10.0 | 0.00 | 0.00 | 0.00 | 18 | 1007.9 |
| 20260503235837 | 74 | 321 | 11.0 | 15.0 | 0.00 | 0.00 | 0.00 | 18 | 1008.3 |
| 20260503235335 | 74 | 310 | 8.0 | 9.0 | 0.00 | 0.00 | 0.00 | 19 | 1008.0 |
| 20260503234832 | 74 | 337 | 14.0 | 18.0 | 0.00 | 0.00 | 0.00 | 18 | 1008.3 |
| 20260503234330 | 75 | 359 | 13.0 | 15.0 | 0.00 | 0.00 | 0.00 | 18 | 1008.1 |
| 20260503233827 | 75 | 6 | 11.0 | 15.0 | 0.00 | 0.00 | 0.00 | 18 | 1008.0 |
| 20260503233323 | 74 | 337 | 5.0 | 6.0 | 0.00 | 0.00 | 0.00 | 19 | 1008.1 |
| 20260503232820 | 74 | 329 | 7.0 | 8.0 | 0.00 | 0.00 | 0.00 | 18 | 1008.1 |
| 20260503232317 | 74 | 354 | 12.0 | 16.0 | 0.00 | 0.00 | 0.00 | 18 | 1008.1 |
| 20260503231815 | 74 | 333 | 14.0 | 15.0 | 0.00 | 0.00 | 0.00 | 18 | 1008.1 |
| 20260503231312 | 74 | 312 | 13.0 | 16.0 | 0.00 | 0.00 | 0.00 | 18 | 1008.3 |
| 20260503230808 | 74 | 325 | 7.0 | 8.0 | 0.00 | 0.00 | 0.00 | 18 | 1008.1 |
| 20260503230305 | 75 | 317 | 13.0 | 14.0 | 0.00 | 0.00 | 0.00 | 18 | 1008.4 |
| 20260503225803 | 75 | 321 | 11.0 | 13.0 | 0.00 | 0.00 | 0.00 | 18 | 1008.4 |
| 20260503225258 | 75 | 347 | 14.0 | 16.0 | 0.00 | 0.00 | 0.00 | 18 | 1008.5 |
| 20260503224755 | 75 | 344 | 13.0 | 15.0 | 0.00 | 0.00 | 0.00 | 18 | 1008.4 |
| 20260503224252 | 75 | 340 | 14.0 | 15.0 | 0.00 | 0.00 | 0.00 | 18 | 1008.4 |
| 20260503223750 | 75 | 328 | 10.0 | 11.0 | 0.00 | 0.00 | 0.00 | 18 | 1008.6 |
| 20260503223247 | 75 | 315 | 11.0 | 11.0 | 0.00 | 0.00 | 0.00 | 19 | 1008.6 |
| 20260503222743 | 75 | 358 | 12.0 | 14.0 | 0.00 | 0.00 | 0.00 | 18 | 1008.7 |
| 20260503222241 | 74 | 356 | 10.0 | 11.0 | 0.00 | 0.00 | 0.00 | 18 | 1008.6 |
| 20260503221739 | 75 | 286 | 11.0 | 14.0 | 0.00 | 0.00 | 0.00 | 18 | 1008.8 |
| 20260503221237 | 73 | 312 | 10.0 | 11.0 | 0.00 | 0.00 | 0.00 | 19 | 1008.7 |
| 20260503220733 | 74 | 323 | 15.0 | 17.0 | 0.00 | 0.00 | 0.00 | 18 | 1009.0 |
| 20260503220230 | 75 | 325 | 15.0 | 16.0 | 0.00 | 0.00 | 0.00 | 19 | 1009.1 |
| 20260503215727 | 74 | 286 | 10.0 | 11.0 | 0.00 | 0.00 | 0.00 | 19 | 1008.9 |
| 20260503215224 | 74 | 331 | 10.0 | 13.0 | 0.00 | 0.00 | 0.00 | 19 | 1009.1 |
| 20260503214722 | 73 | 325 | 8.0 | 11.0 | 0.00 | 0.00 | 0.00 | 18 | 1009.0 |
| 20260503214218 | 75 | 307 | 9.0 | 11.0 | 0.00 | 0.00 | 0.00 | 18 | 1009.2 |
| 20260503213717 | 74 | 315 | 10.0 | 11.0 | 0.00 | 0.00 | 0.00 | 19 | 1009.1 |
| 20260503213213 | 73 | 300 | 10.0 | 11.0 | 0.00 | 0.00 | 0.00 | 20 | 1009.1 |
| 20260503212710 | 74 | 285 | 6.0 | 8.0 | 0.00 | 0.00 | 0.00 | 19 | 1009.1 |
| 20260503212208 | 73 | 344 | 5.0 | 7.0 | 0.00 | 0.00 | 0.00 | 20 | 1009.6 |
| 20260503211706 | 73 | 329 | 13.0 | 15.0 | 0.00 | 0.00 | 0.00 | 19 | 1009.7 |
| 20260503211201 | 74 | 297 | 15.0 | 20.0 | 0.00 | 0.00 | 0.00 | 19 | 1009.4 |
| 20260503210657 | 73 | 351 | 7.0 | 8.0 | 0.00 | 0.00 | 0.00 | 19 | 1009.8 |
| 20260503210154 | 73 | 344 | 11.0 | 13.0 | 0.00 | 0.00 | 0.00 | 19 | 1009.9 |
| 20260503205649 | 73 | 318 | 8.0 | 11.0 | 0.00 | 0.00 | 0.00 | 19 | 1009.9 |
| 20260503205146 | 73 | 290 | 11.0 | 13.0 | 0.00 | 0.00 | 0.00 | 19 | 1009.9 |
| 20260503204643 | 73 | 316 | 12.0 | 16.0 | 0.00 | 0.00 | 0.00 | 18 | 1010.0 |
| 20260503204141 | 73 | 349 | 11.0 | 11.0 | 0.00 | 0.00 | 0.00 | 18 | 1010.0 |
| 20260503203637 | 73 | 306 | 9.0 | 10.0 | 0.00 | 0.00 | 0.00 | 19 | 1010.0 |
| 20260503203135 | 73 | 348 | 10.0 | 11.0 | 0.00 | 0.00 | 0.00 | 20 | 1010.1 |
| 20260503202632 | 73 | 286 | 8.0 | 9.0 | 0.00 | 0.00 | 0.00 | 19 | 1010.2 |
| 20260503202130 | 72 | 312 | 11.0 | 13.0 | 0.00 | 0.00 | 0.00 | 21 | 1010.0 |
| 20260503201628 | 71 | 287 | 8.0 | 10.0 | 0.00 | 0.00 | 0.00 | 20 | 1010.2 |
| 20260503201125 | 72 | 329 | 10.0 | 14.0 | 0.00 | 0.00 | 0.00 | 20 | 1010.4 |
| 20260503200621 | 73 | 350 | 8.0 | 11.0 | 0.00 | 0.00 | 0.00 | 19 | 1010.3 |
| 20260503200118 | 73 | 289 | 12.0 | 15.0 | 0.00 | 0.00 | 0.00 | 18 | 1010.4 |
| 20260503195615 | 73 | 291 | 7.0 | 8.0 | 0.00 | 0.00 | 0.00 | 19 | 1010.4 |
| 20260503195112 | 72 | 308 | 6.0 | 7.0 | 0.00 | 0.00 | 0.00 | 20 | 1010.7 |
| 20260503194609 | 73 | 351 | 15.0 | 17.0 | 0.00 | 0.00 | 0.00 | 19 | 1010.7 |
| 20260503194103 | 72 | 332 | 16.0 | 20.0 | 0.00 | 0.00 | 0.00 | 20 | 1010.8 |
| 20260503193600 | 72 | 263 | 7.0 | 8.0 | 0.00 | 0.00 | 0.00 | 18 | 1010.9 |
| 20260503193056 | 72 | 302 | 9.0 | 10.0 | 0.00 | 0.00 | 0.00 | 18 | 1011.0 |
| 20260503192552 | 72 | 316 | 10.0 | 10.0 | 0.00 | 0.00 | 0.00 | 18 | 1010.8 |
| 20260503192048 | 71 | 302 | 8.0 | 9.0 | 0.00 | 0.00 | 0.00 | 19 | 1011.1 |
| 20260503191545 | 72 | 328 | 11.0 | 11.0 | 0.00 | 0.00 | 0.00 | 18 | 1011.2 |
| 20260503191042 | 71 | 291 | 8.0 | 9.0 | 0.00 | 0.00 | 0.00 | 19 | 1011.3 |
| 20260503190539 | 71 | 318 | 7.0 | 8.0 | 0.00 | 0.00 | 0.00 | 19 | 1011.2 |
| 20260503190036 | 71 | 302 | 8.0 | 9.0 | 0.00 | 0.00 | 0.00 | 19 | 1011.3 |
| 20260503185533 | 71 | 306 | 15.0 | 17.0 | 0.00 | 0.00 | 0.00 | 19 | 1011.3 |
| 20260503185032 | 72 | 273 | 4.0 | 5.0 | 0.00 | 0.00 | 0.00 | 19 | 1011.3 |
| 20260503184528 | 72 | 306 | 9.0 | 10.0 | 0.00 | 0.00 | 0.00 | 20 | 1011.3 |
| 20260503184025 | 72 | 317 | 5.0 | 6.0 | 0.00 | 0.00 | 0.00 | 21 | 1011.3 |
| 20260503183522 | 71 | 313 | 7.0 | 8.0 | 0.00 | 0.00 | 0.00 | 21 | 1011.3 |
| 20260503183019 | 71 | 316 | 11.0 | 13.0 | 0.00 | 0.00 | 0.00 | 20 | 1011.4 |
| 20260503182517 | 71 | 323 | 7.0 | 8.0 | 0.00 | 0.00 | 0.00 | 21 | 1011.4 |
| 20260503182015 | 71 | 308 | 7.0 | 9.0 | 0.00 | 0.00 | 0.00 | 21 | 1011.7 |
| 20260503181512 | 71 | 284 | 10.0 | 11.0 | 0.00 | 0.00 | 0.00 | 21 | 1011.5 |
| 20260503181008 | 71 | 257 | 1.0 | 1.0 | 0.00 | 0.00 | 0.00 | 22 | 1011.9 |
| 20260503180506 | 70 | 336 | 9.0 | 9.0 | 0.00 | 0.00 | 0.00 | 21 | 1012.1 |
| 20260503180002 | 70 | 299 | 10.0 | 13.0 | 0.00 | 0.00 | 0.00 | 22 | 1012.2 |
| 20260503175500 | 70 | 305 | 14.0 | 16.0 | 0.00 | 0.00 | 0.00 | 22 | 1012.1 |
| 20260503174956 | 71 | 331 | 7.0 | 9.0 | 0.00 | 0.00 | 0.00 | 23 | 1011.9 |
| 20260503174454 | 69 | 320 | 4.0 | 5.0 | 0.00 | 0.00 | 0.00 | 23 | 1012.2 |
| 20260503173949 | 71 | 306 | 11.0 | 13.0 | 0.00 | 0.00 | 0.00 | 24 | 1012.2 |
| 20260503173445 | 69 | 291 | 2.0 | 2.0 | 0.00 | 0.00 | 0.00 | 27 | 1012.1 |
| 20260503172942 | 69 | 298 | 6.0 | 7.0 | 0.00 | 0.00 | 0.00 | 26 | 1012.5 |
| 20260503172440 | 69 | 281 | 8.0 | 10.0 | 0.00 | 0.00 | 0.00 | 26 | 1012.3 |
| 20260503171936 | 69 | 279 | 8.0 | 9.0 | 0.00 | 0.00 | 0.00 | 26 | 1012.4 |
| 20260503171433 | 69 | 303 | 10.0 | 13.0 | 0.00 | 0.00 | 0.00 | 27 | 1012.3 |
| 20260503170931 | 69 | 315 | 7.0 | 9.0 | 0.00 | 0.00 | 0.00 | 29 | 1012.3 |
| 20260503170426 | 68 | 305 | 8.0 | 10.0 | 0.00 | 0.00 | 0.00 | 27 | 1012.3 |
| 20260503150819 | 59 | 284 | 6.0 | 7.0 | 0.00 | 0.00 | 0.00 | 49 | 1013.3 |
| 20260503150315 | 59 | 266 | 4.0 | 6.0 | 0.00 | 0.00 | 0.00 | 52 | 1013.2 |
| 20260503140239 | 51 | 240 | 2.0 | 3.0 | 0.00 | 0.00 | 0.00 | 67 | 1013.6 |
| 20260503131209 | 39 | 16 | 0.0 | 0.0 | 0.00 | 0.00 | 0.00 | 78 | 1013.7 |
| 20260503130707 | 39 | 17 | 0.0 | 0.0 | 0.00 | 0.00 | 0.00 | 77 | 1013.7 |
| 20260503130204 | 38 | 52 | 0.0 | 0.0 | 0.00 | 0.00 | 0.00 | 80 | 1013.5 |